GW4079 Weather Reports


Display with metric or nautical units.
time (UTC)temp
F
wind
direction
speed
MPH
gust
MPH
rain 1hr
in
rain 24hr
in
rain mn
in
humidity
%
barometer
mb
20260502203029 65 83 2.0 10.0 0.00 0.00 0.00 37 1019.1
20260502201530 63 60 4.0 15.0 0.00 0.00 0.00 39 1019.3
20260502200029 65 327 8.0 16.0 0.00 0.00 0.00 36 1019.7
20260502194531 64 26 12.0 18.0 0.00 0.00 0.00 37 1019.7
20260502193035 65 29 8.0 15.0 0.00 0.00 0.00 36 1019.8
20260502191532 63 64 10.0 16.0 0.00 0.00 0.00 37 1019.9
20260502190033 64 39 11.0 17.0 0.00 0.00 0.00 39 1020.1
20260502184550 63 28 10.0 16.0 0.00 0.00 0.00 40 1020.0
20260502183032 64 31 2.0 14.0 0.00 0.00 0.00 38 1020.1
20260502181532 64 30 6.0 13.0 0.00 0.00 0.00 39 1020.4
20260502163034 61 53 8.0 16.0 0.00 0.00 0.00 40 1020.6
20260502161536 61 55 9.0 13.0 0.00 0.00 0.00 41 1020.8
20260502151532 58 78 9.0 13.0 0.00 0.00 0.00 44 1020.4
20260502123043 44 41 10.0 15.0 0.00 0.00 0.00 60 1018.9
20260502121530 45 61 11.0 15.0 0.00 0.00 0.00 59 1018.8
20260502114538 45 49 9.0 14.0 0.00 0.00 0.00 57 1018.0
20260502113041 46 62 9.0 15.0 0.00 0.00 0.00 54 1017.8
20260502111534 48 76 13.0 18.0 0.00 0.00 0.00 52 1017.7
20260502110038 48 71 10.0 13.0 0.00 0.00 0.00 51 1017.6
20260502104539 48 67 10.0 13.0 0.00 0.00 0.00 50 1017.3
20260502103037 49 73 10.0 14.0 0.00 0.00 0.00 47 1017.2
20260502101552 49 80 11.0 14.0 0.00 0.00 0.00 48 1017.0
20260502091532 49 39 7.0 16.0 0.00 0.00 0.00 42 1016.7
20260502070049 43 36 4.0 7.0 0.00 0.00 0.00 46 1015.8
20260502064542 44 36 5.0 8.0 0.00 0.00 0.00 44 1015.6
20260502063037 44 21 4.0 7.0 0.00 0.00 0.00 43 1015.7
20260502061537 45 39 6.0 9.0 0.00 0.00 0.00 42 1015.7
20260502060052 46 31 4.0 6.0 0.00 0.00 0.00 41 1015.7
20260502054544 47 34 5.0 9.0 0.00 0.00 0.00 39 1015.6
20260502053049 47 37 6.0 9.0 0.00 0.00 0.00 37 1015.6
20260502051547 48 34 7.0 10.0 0.00 0.00 0.00 36 1015.7
20260502050045 49 51 6.0 9.0 0.00 0.00 0.00 36 1015.6
20260502044537 50 45 6.0 10.0 0.00 0.00 0.00 33 1015.6
20260502043044 51 32 6.0 9.0 0.00 0.00 0.00 33 1015.5
20260502041546 51 34 5.0 8.0 0.00 0.00 0.00 31 1015.4
20260502040052 51 30 6.0 10.0 0.00 0.00 0.00 31 1015.6
20260502034550 52 36 6.0 9.0 0.00 0.00 0.00 30 1015.5
20260502033102 54 41 6.0 9.0 0.00 0.00 0.00 29 1015.3
20260502031554 55 30 5.0 8.0 0.00 0.00 0.00 29 1015.0
20260502030059 56 33 3.0 6.0 0.00 0.00 0.00 28 1015.1
20260502024554 58 329 2.0 5.0 0.00 0.00 0.00 26 1014.9
20260502023109 62 317 3.0 4.0 0.00 0.00 0.00 24 1014.9
20260502021551 65 287 3.0 4.0 0.00 0.00 0.00 22 1014.6
20260502020104 66 287 3.0 4.0 0.00 0.00 0.00 21 1014.7
20260502014600 68 287 4.0 9.0 0.00 0.00 0.00 19 1014.7
20260502013058 71 285 8.0 12.0 0.00 0.00 0.00 18 1014.9
20260502011605 73 277 5.0 13.0 0.00 0.00 0.00 17 1015.1
20260502010059 74 230 7.0 11.0 0.00 0.00 0.00 17 1015.2
20260502004612 74 259 12.0 17.0 0.00 0.00 0.00 17 1015.3
20260502003100 74 290 10.0 16.0 0.00 0.00 0.00 18 1015.3
20260502001603 74 242 2.0 12.0 0.00 0.00 0.00 17 1015.3
20260502000107 74 304 4.0 12.0 0.00 0.00 0.00 17 1015.4
20260501234610 74 238 10.0 15.0 0.00 0.00 0.00 17 1015.5
20260501233116 74 242 8.0 14.0 0.00 0.00 0.00 17 1015.5
20260501231617 74 281 11.0 17.0 0.00 0.00 0.00 17 1015.6
20260501230509 74 207 2.0 15.0 0.00 0.00 0.00 16 1015.8
20260501224549 74 260 10.0 15.0 0.00 0.00 0.00 17 1015.9
20260501223055 74 252 7.0 15.0 0.00 0.00 0.00 16 1016.1
20260501221544 74 281 4.0 9.0 0.00 0.00 0.00 17 1016.3
20260501220038 74 336 2.0 11.0 0.00 0.00 0.00 16 1016.5
20260501214547 73 309 3.0 8.0 0.00 0.00 0.00 17 1016.6
20260501213106 73 284 7.0 16.0 0.00 0.00 0.00 16 1016.9
20260501211553 73 311 8.0 15.0 0.00 0.00 0.00 17 1017.0
20260501210105 72 275 4.0 16.0 0.00 0.00 0.00 17 1017.0
20260501204614 73 258 11.0 16.0 0.00 0.00 0.00 17 1017.2